Temp
7 7 7 8 8 8 8 8 8 8 8 8 8 8 8 8 7 8 8 9 9 8 8 8 8 8 9 10 13 20 19 19 21 20 20 19 19 19 20 19 20 19 21 21 21 19 19
7 7 7 7 7 8 7 7 7 7 7 7 7 7 8 8 8 8 8 8 10 8 9 9 8 7 9 10 17 18 18 18 19 20 19 19 19 19 20 20 19 21 21 20 20 20 19
7 7 7 7 7 7 7 7 7 7 7 7 7 7 7 7 7 8 8 8 9 9 9 9 8 7 9 11 18 17 17 17 18 19 18 19 20 20 20 21 20 21 20 19 21 20 19
7 7 7 7 7 7 7 7 7 7 7 7 7 7 7 8 8 8 8 8 9 11 10 8 7 7 9 16 15 16 18 18 19 18 19 20 20 19 20 21 20 21 19 19 21 18 19
7 7 7 7 7 7 7 7 7 7 7 7 7 7 7 7 8 8 8 8 10 12 10 8 7 9 10 15 14 18 16 16 19 19 19 20 20 19 20 18 18 16 17 19 20 19 18
6 7 7 7 7 7 6 6 7 7 7 7 7 7 7 7 7 7 7 9 10 10 8 8 10 10 12 17 18 19 18 17 19 17 18 18 17 16 15 16 17 17 17 17 18 21 18
6 6 6 6 6 6 6 6 6 7 7 7 7 7 7 7 7 7 7 8 9 10 9 10 11 12 15 17 18 18 18 16 18 18 17 17 16 16 18 18 18 18 19 19 18 19 21
5 6 6 5 5 5 6 6 6 6 6 7 7 7 7 7 7 7 7 7 8 8 8 10 10 10 12 14 13 16 18 17 17 17 17 17 17 18 19 18 18 19 18 17 18 20 19
5 5 5 5 6 5 5 6 6 6 6 7 7 7 7 7 7 7 7 7 8 8 8 11 11 12 14 14 14 16 17 17 17 16 17 18 18 19 19 17 18 17 17 17 18 18 19
5 5 5 5 5 5 5 5 6 6 6 6 7 7 7 7 7 6 6 7 8 8 8 11 11 13 15 14 13 18 18 18 17 17 16 17 19 19 18 18 18 17 18 19 19 19 17
5 5 5 5 5 5 5 5 6 6 6 6 6 7 7 6 6 6 8 8 8 7 9 16 15 16 16 16 18 17 18 18 17 17 17 17 17 18 18 18 19 19 19 18 19 17 19
5 5 4 5 5 5 4 5 5 5 6 6 6 7 6 6 6 6 6 7 8 10 11 14 17 15 15 16 17 17 17 19 18 18 18 18 19 18 20 20 19 21 20 19 17 16 16
4 4 5 5 4 4 4 4 5 5 6 6 6 6 6 6 6 7 7 7 9 10 14 15 15 16 15 15 16 17 16 16 16 16 16 18 18 19 21 19 19 19 18 17 17 16 16
4 4 4 4 4 4 4 4 5 5 6 6 6 6 6 6 6 6 7 7 9 12 12 15 15 15 15 16 16 17 15 15 17 17 16 17 16 18 19 19 18 18 18 16 18 16 17
4 4 4 4 4 4 4 4 4 5 6 6 6 6 5 6 6 6 6 6 10 12 13 12 14 15 16 17 18 18 16 16 18 17 18 16 17 19 19 19 20 19 17 19 16 15 15
4 4 4 4 4 4 4 4 4 5 5 6 4 5 6 6 6 6 6 7 10 12 12 12 12 14 14 15 16 17 17 17 18 18 18 17 18 19 20 20 20 20 19 18 15 16 16
3 4 4 4 3 3 3 3 4 5 5 5 4 5 8 7 6 6 6 6 9 11 11 11 11 12 13 13 14 16 17 16 17 17 17 18 17 18 20 19 18 19 18 19 17 15 17
3 3 3 3 3 3 3 3 4 5 5 5 5 5 6 7 6 5 6 6 10 10 11 11 12 11 12 13 13 14 15 16 15 16 17 17 16 16 18 19 20 19 18 19 16 17 14
3 3 3 3 3 3 3 3 4 4 5 4 5 5 6 6 7 6 6 7 8 9 10 10 11 11 12 12 13 13 14 14 14 16 16 17 16 15 16 18 18 18 18 19 17 15 15
3 3 3 3 3 3 3 3 4 4 4 4 4 5 5 6 6 7 7 7 7 9 9 10 10 10 11 11 12 12 13 14 14 15 14 15 16 15 15 17 18 18 18 19 18 15 16
3 3 3 3 3 3 3 3 4 4 4 4 4 4 6 6 6 7 8 8 8 8 9 10 9 10 10 10 10 11 13 12 14 16 16 15 15 14 15 16 17 18 19 18 18 17 17
2 2 2 2 3 3 3 3 4 4 4 4 3 5 5 6 8 6 7 7 9 9 9 8 8 9 9 9 10 10 11 12 12 13 13 14 13 13 15 15 15 16 18 18 18 18 17
2 2 2 2 3 3 3 3 3 3 3 4 4 4 6 6 7 6 7 8 8 9 9 9 9 9 8 9 10 10 10 10 11 11 11 12 12 11 13 13 14 15 17 17 18 19 18
2 2 2 3 3 3 3 3 3 3 3 4 4 5 5 6 6 7 8 8 9 9 9 10 9 8 10 10 10 9 9 9 10 10 11 12 12 10 11 13 13 16 17 17 17 18 18
2 2 3 3 3 3 3 3 3 3 3 4 4 5 5 6 7 7 8 8 9 9 9 9 10 10 9 9 9 9 8 9 10 11 11 12 11 11 10 12 13 15 18 16 15 16 18
3 3 3 3 3 3 3 3 3 3 4 4 4 5 6 6 6 8 8 8 7 7 8 8 10 9 10 7 8 8 8 10 11 12 11 10 11 11 11 11 12 14 15 14 15 16 15
4 4 4 4 4 4 4 4 4 4 4 4 4 4 5 5 7 8 8 7 8 7 7 8 8 8 8 6 8 8 8 11 10 10 12 11 10 12 11 12 11 13 14 14 15 15 12
4 4 4 4 4 4 4 4 4 4 4 4 4 4 4 3 6 8 9 8 8 8 7 8 8 7 5 5 6 9 6 8 10 11 11 11 11 9 10 10 10 13 14 16 14 12 13
4 4 4 4 4 4 4 4 4 4 4 4 2 4 4 5 5 6 8 9 10 10 10 8 8 7 6 6 5 6 5 3 8 9 11 10 10 9 10 10 12 12 14 13 12 13 13
Height
833 832 831 830 827 825 824 824 822 822 819 817 816 812 810 806 805 801 798 793 792 790 791 786 785 781 776 774 760 745 745 747 747 745 748 749 757 761 767 765 762 768 759 754 751 752 751
833 831 830 828 827 824 822 821 821 822 818 815 813 812 809 806 800 798 797 792 786 787 786 786 784 781 781 777 746 743 743 744 745 742 745 746 751 753 758 759 764 756 755 754 751 749 749
831 829 829 826 824 823 819 818 818 819 817 812 810 811 808 804 799 796 792 788 781 782 781 781 782 782 779 757 742 742 741 743 744 742 743 744 746 751 754 757 752 752 760 755 747 747 749
829 828 825 823 821 821 818 816 816 817 814 811 808 809 805 803 798 793 789 785 779 775 774 775 779 779 767 741 739 737 737 739 741 741 742 742 744 749 752 750 754 758 761 769 749 749 747
826 825 823 820 821 820 812 813 813 815 811 810 806 805 802 800 796 791 786 779 772 768 765 769 776 775 759 739 736 730 731 734 736 739 742 742 743 749 751 763 770 772 778 770 758 746 751
823 821 820 818 817 819 810 809 811 810 810 805 805 804 801 798 795 791 784 777 768 767 768 772 770 773 745 734 729 729 729 731 733 736 743 744 748 757 765 769 778 775 775 771 768 747 752
819 817 817 814 814 814 808 806 808 808 806 803 802 802 798 796 794 791 786 777 775 773 770 765 757 746 735 731 728 728 728 730 733 734 746 743 755 756 751 754 757 761 763 765 759 749 747
814 812 813 811 809 810 806 803 805 805 803 801 800 799 796 794 793 791 789 787 787 790 771 757 749 747 734 736 740 727 726 732 735 739 738 747 744 740 743 752 755 758 764 767 754 742 751
809 804 809 807 806 806 802 801 802 802 800 799 797 796 794 793 791 789 788 789 787 785 776 741 732 729 720 730 732 718 724 724 730 737 735 737 734 730 741 752 757 760 765 762 760 750 742
804 803 803 801 801 801 799 797 798 798 797 796 795 794 793 792 792 790 788 788 787 786 774 741 726 713 712 718 723 705 710 716 726 730 736 738 726 732 739 745 747 760 747 748 755 761 771
796 798 797 797 796 797 795 793 794 794 794 793 793 792 791 791 790 791 790 786 785 783 779 714 711 705 706 711 703 698 702 708 721 724 729 731 729 731 737 735 739 742 740 748 750 760 757
793 795 790 793 791 791 790 789 790 790 790 789 789 790 790 788 787 788 787 785 783 775 757 719 704 708 712 708 704 700 704 704 708 718 719 722 716 723 720 725 732 728 737 743 753 760 774
787 788 786 787 787 786 786 785 785 785 785 785 786 787 787 786 785 786 786 785 780 760 729 717 714 709 710 709 707 702 708 712 713 730 732 722 723 716 711 725 728 732 747 768 770 774 771
780 781 781 782 782 782 781 781 780 780 780 780 782 783 781 781 783 785 787 788 769 738 733 719 714 710 707 701 702 700 709 715 708 710 724 727 737 721 711 719 729 735 738 765 766 774 761
774 775 776 776 776 776 776 776 775 776 776 777 778 777 776 775 780 783 787 785 754 739 735 733 719 713 708 697 698 696 708 711 702 702 713 726 727 704 706 706 713 730 741 730 757 762 768
767 768 768 769 769 769 770 770 770 772 772 773 775 775 769 771 775 778 781 773 755 740 740 736 733 722 717 709 704 701 704 705 700 696 695 709 718 701 698 701 707 712 716 742 752 761 763
759 760 761 761 762 762 764 764 765 766 768 771 773 768 760 765 772 771 765 769 758 746 746 743 739 735 727 724 715 709 705 709 703 699 698 703 713 713 701 709 715 718 723 723 731 746 748
750 751 752 753 754 755 756 758 759 761 765 768 767 761 756 759 765 761 757 762 755 748 744 743 739 738 731 727 722 718 714 712 710 702 705 705 715 722 711 701 699 705 715 715 737 738 746
741 742 743 744 745 747 748 750 752 755 759 764 757 756 753 752 749 752 754 756 754 749 745 744 743 741 735 733 730 724 723 716 713 708 712 706 717 728 723 709 703 708 708 709 718 727 736
730 731 733 734 736 737 740 742 744 747 751 759 756 747 748 742 740 743 748 750 753 748 750 747 745 743 740 740 734 733 728 719 714 713 712 710 712 720 725 714 706 708 703 702 710 731 728
719 720 721 723 725 727 729 732 735 739 743 751 745 740 732 731 734 735 740 741 746 745 746 743 745 744 744 747 744 737 729 730 722 712 710 716 719 723 718 712 706 701 698 700 706 709 717
708 709 709 710 712 715 718 720 724 729 735 737 735 732 733 728 726 734 736 737 735 740 743 745 747 744 746 749 744 743 736 733 731 721 723 717 723 725 720 713 709 708 699 698 699 700 703
693 694 695 697 699 701 704 708 712 718 725 721 725 727 725 720 723 729 728 727 732 735 739 738 741 745 747 741 740 737 734 733 731 734 734 728 727 732 726 721 717 715 702 700 692 687 690
677 678 679 682 684 687 691 694 699 704 710 713 713 719 722 713 717 716 719 723 725 730 735 733 736 744 737 736 734 733 734 730 729 729 730 727 728 738 736 724 732 703 693 692 694 686 685
659 661 663 666 669 672 676 680 685 691 697 701 707 707 710 711 712 713 715 719 725 728 730 733 731 734 737 738 739 734 740 730 723 718 721 722 729 734 740 731 716 704 688 695 699 694 681
644 646 648 651 654 658 661 665 671 678 685 693 698 701 702 709 702 708 711 714 722 726 732 729 728 733 736 745 742 739 743 725 717 710 714 723 724 730 732 732 724 702 693 691 688 693 686
634 635 637 640 643 647 651 654 660 666 674 682 685 695 693 698 697 700 703 710 713 721 725 727 730 734 735 746 742 737 736 722 727 723 711 722 727 719 726 719 717 701 694 691 703 698 694
622 624 626 629 633 638 642 647 651 657 664 672 678 684 691 698 691 692 695 701 706 708 717 723 732 732 743 747 744 733 748 730 724 717 715 715 722 735 729 732 728 693 693 694 695 693 689
609 610 613 618 622 627 633 639 646 652 657 665 672 678 687 694 694 693 694 696 695 697 704 713 716 718 723 734 738 734 742 750 727 728 712 722 717 724 721 715 695 693 689 688 691 687 683
Wind_Speed
13 13 13 13 14 14 15 15 16 17 17 17 18 18 19 19 21 22 25 24 28 29 31 29 28 26 12 4 10 8 11 8 9 13 9 6 5 5 5 4 4 4 5 4 7 10 4
13 13 14 14 14 15 15 16 18 19 19 18 19 20 19 21 22 24 27 29 28 29 30 30 25 20 4 6 6 7 6 6 11 14 8 8 6 6 4 4 6 5 5 7 7 6 4
14 13 14 14 16 16 16 16 18 19 20 19 19 21 22 22 21 23 27 32 29 30 31 31 24 11 6 18 9 6 5 3 7 8 5 7 4 3 1 2 4 3 4 6 5 3 5
15 16 15 15 16 17 18 17 19 19 19 19 20 23 23 24 25 27 28 32 33 34 36 30 16 5 9 15 16 16 21 21 18 10 5 5 4 4 4 3 4 2 3 3 4 5 2
17 17 17 17 18 18 17 20 21 22 21 22 22 23 24 25 27 28 31 35 35 24 24 11 7 6 10 8 9 10 16 11 18 15 9 5 7 5 2 3 4 5 4 4 7 6 4
18 18 18 17 19 20 18 18 19 18 20 20 22 23 24 24 26 27 30 34 18 7 10 7 4 1 10 5 3 2 4 9 4 8 4 4 3 4 2 4 7 5 4 4 6 2 4
20 19 19 20 20 21 19 19 22 21 20 20 20 21 22 23 23 25 28 14 5 2 4 8 4 5 6 7 4 4 3 6 3 4 8 5 5 11 12 5 4 4 2 3 7 5 2
20 19 20 21 21 21 20 19 21 22 21 20 20 20 21 21 20 21 19 3 2 6 12 15 21 17 36 14 8 9 7 6 6 7 6 3 13 8 8 7 6 3 2 7 10 7 6
20 19 22 21 21 20 20 20 20 22 21 19 19 21 20 18 18 12 6 5 6 18 6 12 10 9 12 16 15 23 6 5 5 7 13 8 5 13 9 6 7 6 6 5 8 8 4
22 23 23 21 20 21 20 20 22 21 19 20 21 22 19 14 10 5 6 5 19 14 5 9 6 8 7 9 8 19 21 8 5 13 6 7 6 5 5 12 9 7 10 10 7 2 4
21 23 22 22 22 23 22 22 21 21 21 21 22 22 18 10 8 3 7 20 22 2 5 2 4 4 6 12 3 4 13 3 9 7 7 8 9 13 6 6 8 9 6 8 5 5 1
24 24 21 23 22 24 22 22 22 22 22 21 24 22 18 11 9 14 16 16 6 4 8 6 2 3 6 6 4 4 5 1 5 5 1 7 2 8 11 6 11 4 4 2 3 3 2
27 24 24 23 23 23 22 22 23 23 21 24 25 22 18 13 2 4 8 8 3 6 5 4 5 3 6 4 5 5 8 9 8 7 8 1 6 2 3 5 4 4 4 1 2 0 5
25 23 22 23 24 23 22 23 23 22 21 22 22 21 21 18 14 12 6 2 10 4 6 7 5 14 6 6 5 5 9 7 5 5 6 9 3 8 5 8 7 7 7 5 6 3 4
24 24 26 25 24 24 23 23 24 21 21 23 20 21 16 15 14 8 2 6 3 2 3 9 11 4 3 2 2 3 6 7 7 6 6 6 5 3 5 6 12 5 5 6 6 2 2
28 28 26 24 26 23 23 23 24 22 22 23 16 11 16 13 16 12 3 8 5 3 5 5 4 6 5 7 5 1 6 5 4 11 0 6 1 4 3 4 3 7 7 3 1 5 4
30 29 27 26 27 26 25 23 24 21 22 18 11 4 6 20 20 4 6 6 6 16 6 4 4 5 4 5 4 5 3 6 12 6 7 3 3 4 3 4 7 3 3 2 4 4 5
33 32 29 27 27 27 26 24 23 23 22 19 6 6 10 30 6 2 3 7 6 10 3 4 3 5 3 6 6 7 6 6 13 6 5 5 3 5 10 6 2 4 7 9 4 4 3
34 33 30 29 29 29 28 27 27 26 23 11 4 4 10 21 9 5 6 4 4 6 3 2 3 3 4 4 4 4 6 7 13 15 6 4 2 2 7 4 3 4 6 5 2 3 7
36 33 32 32 31 31 30 31 29 29 26 21 2 6 3 5 3 12 8 7 7 7 15 4 3 1 3 4 3 5 8 6 15 7 7 1 1 1 2 2 2 3 7 10 8 4 3
38 36 35 35 34 34 34 33 33 30 29 22 5 4 4 5 7 11 14 9 12 8 8 5 4 5 2 3 4 3 3 5 6 6 4 2 2 2 4 4 6 12 9 6 9 6 8
40 40 40 39 37 37 36 37 35 33 31 24 4 4 4 2 11 16 15 16 14 13 6 5 9 4 3 4 6 5 5 2 5 5 6 4 1 1 3 10 12 6 9 10 8 5 6
44 43 42 41 40 40 39 38 38 36 34 14 14 7 3 6 10 13 10 13 17 9 5 11 3 5 6 13 9 12 9 8 9 5 4 4 2 2 1 5 11 4 3 6 9 10 7
46 45 44 42 41 40 40 40 40 40 40 25 9 6 5 4 10 12 17 16 13 17 10 2 10 9 3 4 5 5 8 13 12 13 9 6 3 2 2 3 2 5 11 7 7 11 7
46 44 43 42 42 41 41 41 41 42 42 33 19 9 5 9 6 13 15 20 16 14 16 14 14 3 1 3 3 4 3 4 6 13 10 11 4 4 3 3 4 9 2 4 3 9 6
32 36 38 38 38 40 41 42 40 43 43 40 32 17 7 5 11 10 14 16 12 13 10 14 12 3 3 0 1 3 2 3 3 2 4 6 1 3 2 3 4 4 3 4 5 11 10
31 29 30 30 29 29 27 29 35 37 40 38 19 37 3 5 7 13 12 10 6 8 3 4 4 4 6 2 1 2 3 2 3 1 3 4 3 9 4 5 6 5 5 3 0 7 8
34 33 33 32 31 30 29 27 28 35 40 39 24 33 20 2 5 16 11 8 7 10 6 4 2 1 2 4 3 4 2 4 2 4 4 5 5 3 3 1 9 5 1 3 4 4 3
29 32 37 36 34 35 32 30 30 28 26 39 4 30 34 7 0 7 13 18 26 21 10 9 6 5 5 3 2 2 1 1 4 2 1 2 6 5 7 7 4 3 5 6 3 5 4
Wind_Direction
324 324 320 314 312 309 314 314 316 314 320 321 322 328 327 329 326 328 329 322 318 321 323 325 328 333 346 350 256 268 286 289 194 178 174 142 151 168 188 202 147 216 261 220 263 294 233
309 311 313 314 313 314 317 319 318 315 317 319 322 320 319 322 325 326 324 331 327 314 317 318 320 332 282 278 244 279 277 248 215 184 173 156 186 205 206 218 171 216 245 274 265 249 233
303 304 305 306 311 313 316 317 316 316 317 321 321 320 323 323 324 325 325 324 329 318 312 311 309 308 254 246 262 234 276 216 229 208 153 177 183 132 189 240 248 251 282 299 249 210 242
296 296 297 302 304 307 311 317 318 315 317 319 320 319 320 319 321 323 324 324 319 319 307 299 287 220 253 267 282 273 263 263 249 223 202 191 206 180 178 270 352 304 73 341 286 155 341
292 295 296 298 296 296 303 310 307 306 307 312 316 316 319 321 323 321 320 319 323 320 306 261 195 192 263 293 264 284 238 222 224 221 231 107 139 176 114 124 356 2 249 240 302 196 112
294 289 291 295 295 294 301 306 307 308 308 309 311 311 313 317 320 325 328 323 328 25 61 150 161 305 258 249 247 248 259 209 208 129 134 145 124 138 99 130 219 203 227 248 252 249 169
289 288 291 296 294 293 302 303 301 305 302 305 309 310 315 316 316 325 331 343 10 309 6 245 221 249 304 317 296 175 122 143 274 142 173 189 151 203 193 166 152 145 209 271 260 231 287
288 287 289 292 291 294 295 298 297 299 301 307 309 309 313 315 316 319 324 313 326 341 296 262 252 255 257 282 319 276 212 163 177 201 143 131 223 185 166 176 176 192 275 277 290 267 178
284 286 288 289 288 290 291 294 295 295 298 306 311 312 312 314 315 321 321 281 325 343 265 282 225 224 231 183 225 260 180 178 182 170 201 196 215 168 164 167 171 201 191 238 228 346 285
283 283 282 286 287 288 286 287 291 296 300 303 306 311 308 311 307 323 298 320 337 334 288 270 219 247 173 143 237 221 194 161 209 198 142 227 231 126 150 205 171 225 198 235 258 78 260
279 279 284 282 281 278 284 289 287 290 294 299 302 308 301 292 293 304 288 311 326 300 321 234 190 190 155 170 295 216 179 130 167 177 143 225 179 190 181 198 163 235 155 194 231 207 187
281 277 278 277 278 283 283 284 287 287 289 292 293 298 299 288 260 270 300 319 324 230 246 307 163 139 152 234 291 51 159 184 154 137 197 214 179 166 217 181 183 126 192 146 74 117 223
274 273 274 275 280 283 284 284 284 284 286 286 287 289 288 261 224 282 322 334 238 231 318 314 354 134 246 215 221 155 179 190 163 158 194 190 224 254 171 117 180 128 105 292 345 290 225
276 269 275 275 277 275 277 281 281 282 283 280 285 287 282 265 250 255 320 262 230 201 263 324 322 305 201 163 240 161 143 194 256 116 157 200 235 189 200 176 169 177 165 158 204 197 240
274 274 270 269 270 273 277 277 279 280 277 279 291 288 270 252 229 184 145 234 242 249 338 336 318 319 313 12 304 141 168 196 207 187 147 162 246 207 200 172 162 202 161 194 101 33 55
271 266 265 268 269 270 274 273 277 276 276 277 288 276 250 217 209 166 202 218 243 314 13 349 321 15 341 346 29 18 158 342 225 207 201 195 182 205 224 116 209 166 164 105 7 168 215
270 269 265 268 268 270 271 269 271 274 276 279 269 240 241 198 192 184 218 194 259 278 308 319 324 311 322 351 320 351 79 43 6 333 183 147 96 290 75 168 169 152 188 138 142 144 194
268 267 262 265 267 268 265 263 261 257 262 271 248 240 188 175 202 208 176 161 232 283 304 289 279 242 280 339 347 17 22 58 346 321 135 200 170 225 257 253 185 179 196 185 184 226 211
266 264 260 264 266 263 259 260 262 261 255 238 239 244 203 189 210 201 137 187 236 271 232 240 278 354 1 349 333 25 353 327 11 10 9 4 226 265 326 323 21 195 188 191 133 122 199
267 263 262 264 262 260 256 257 259 257 252 228 250 211 193 232 153 196 174 201 202 236 253 296 280 1 352 17 18 314 329 323 329 323 347 298 35 186 207 290 246 207 205 208 197 197 185
264 262 262 262 260 258 257 256 259 251 243 223 194 235 195 199 206 193 187 183 201 222 211 209 272 199 94 318 347 242 283 338 304 313 4 31 185 35 296 335 304 260 247 232 208 211 219
267 264 263 262 259 256 254 253 250 244 236 225 181 192 212 206 190 195 193 206 209 213 209 220 232 303 72 229 211 283 293 243 260 347 8 347 240 88 291 344 339 301 264 255 254 226 242
264 262 261 258 256 254 251 249 245 238 228 215 208 215 228 181 186 185 197 196 212 197 241 238 241 219 245 253 243 256 264 256 262 298 347 288 170 89 250 352 332 360 351 278 265 247 200
261 259 257 255 253 252 250 247 241 234 227 220 191 153 216 219 192 196 201 202 201 209 217 183 224 217 233 348 303 258 254 257 251 262 218 274 128 93 220 40 276 237 318 243 269 279 274
258 257 256 255 254 251 246 242 237 234 230 213 211 192 184 220 209 189 194 200 209 216 221 232 239 185 65 292 311 313 332 323 247 223 222 209 158 164 165 193 295 302 56 22 59 301 289
269 260 256 255 252 251 248 239 235 229 225 214 213 211 190 207 212 182 191 185 192 207 225 240 253 120 110 106 154 227 250 239 306 319 211 139 135 150 164 187 242 250 354 344 329 283 3
271 264 256 250 245 239 238 232 226 222 219 210 207 211 205 200 199 179 186 186 155 165 166 147 221 197 134 161 231 251 259 254 285 194 167 171 181 223 205 243 282 232 272 290 198 289 324
266 260 255 249 245 240 236 227 226 220 217 204 207 198 209 160 200 192 196 169 171 181 165 153 85 239 91 156 182 188 208 237 218 181 174 176 173 202 121 164 273 200 100 175 225 272 267
265 261 249 246 244 236 231 225 213 212 212 200 134 193 195 208 212 203 216 200 193 185 178 161 202 160 162 136 198 159 199 48 165 236 7 244 183 186 179 210 261 223 220 233 206 234 299